Rifle, CO

11:16 AM MDT on July 25, 2017 (GMT -0600)
Garfield County Regional

Weather History for KRIL - June, 2011

Change the Weather History Date:

Tuesday, June 28, 2011

  Actual Average Record
Temperature  
Mean Temperature 74 °F 70 °F  
Max Temperature 97 °F 89 °F 102 °F (1929)
Min Temperature 51 °F 51 °F 35 °F (1960)
Degree Days  
Heating Degree Days 0 0  
Month to date heating degree days 57  
Since 1 June heating degree days 57  
Since 1 July heating degree days 6623  
Cooling Degree Days 8 5  
Month to date cooling degree days 83  
Year to date cooling degree days 90  
Since 1 June cooling degree days 83  
Growing Degree Days 24 (Base 50)    
Moisture  
Dew Point 30 °F    
Average Humidity 22    
Maximum Humidity 43    
Minimum Humidity 7    
Precipitation  
Precipitation 0.00 in 0.02 in 0.92 in (1988)
Month to date precipitation 0.99  
Year to date precipitation 6.41  
Sea Level Pressure  
Sea Level Pressure 29.90 in    
Wind  
Wind Speed 6 mph (SSW)    
Max Wind Speed 26 mph    
Max Gust Speed 54 mph    
Visibility 10 miles    
Events      
T = Trace of Precipitation, MM = Missing Value Source: NWS Daily Summary

Daily Weather History Graph

Daily Weather History Graph

Search for Another Location

Airport or City:

Trip Planner

Search our weather history database for the weather conditions in past years. The results will help you decide how hot, cold, wet, or windy it might be!

Date:

Astronomy

Jun. 28, 2011 Rise Set
Actual Time 5:45 AM MDT 8:42 PM MDT
Civil Twilight 5:13 AM MDT 9:14 PM MDT
Nautical Twilight 4:32 AM MDT 9:55 PM MDT
Astronomical Twilight 3:44 AM MDT 10:43 PM MDT
Moon 3:19 AM MDT (6/28) 6:32 PM MDT (6/28)
Length of Visible Light 16h 01m
Length of Day
14h 56m
Waning Crescent, 7% of the Moon is Illuminated
Jun 28
Waning Crescent
Jul 1
New
Jul 8
First Quarter
Jul 15
Full
Jul 22
Last Quarter

Hourly Weather History & Observations

Time (MDT) Temp. Dew Point Humidity Pressure Visibility Wind Dir Wind Speed Gust Speed Precip Events Conditions
12:53 AM 62.1 °F 30.9 °F 31% 29.88 in 10.0 mi SE 4.6 mph - N/A   Clear
1:53 AM 59.0 °F 28.9 °F 32% 29.88 in 10.0 mi South 3.5 mph - N/A   Clear
2:53 AM 57.0 °F 30.9 °F 37% 29.88 in 10.0 mi Calm Calm - N/A   Clear
3:53 AM 54.0 °F 28.0 °F 37% 29.89 in 10.0 mi ESE 3.5 mph - N/A   Clear
4:53 AM 53.1 °F 28.9 °F 40% 29.91 in 10.0 mi SSE 3.5 mph - N/A   Clear
5:53 AM 51.1 °F 28.9 °F 43% 29.91 in 10.0 mi Calm Calm - N/A   Clear
8:53 AM 68.0 °F 34.0 °F 28% 29.93 in 10.0 mi North 3.5 mph - N/A   Clear
9:53 AM 71.1 °F 34.0 °F 26% 29.94 in 10.0 mi Calm Calm - N/A   Clear
10:53 AM 77.0 °F 33.1 °F 20% 29.90 in 10.0 mi Calm Calm - N/A   Clear
11:53 AM 84.0 °F 33.1 °F 16% 29.88 in 10.0 mi WNW 3.5 mph - N/A   Clear
12:53 PM 89.1 °F 19.9 °F 8% 29.85 in 10.0 mi WNW 9.2 mph - N/A   Clear
2:53 PM 93.0 °F 26.1 °F 9% 29.81 in 10.0 mi Variable 6.9 mph - N/A   Clear
3:31 PM 96.8 °F 24.8 °F 8% 30.03 in 10.0 mi SW 26.5 mph 49.5 mph N/A   Clear
3:53 PM 95.0 °F 24.1 °F 8% 29.78 in 10.0 mi WSW 18.4 mph 25.3 mph N/A   Clear
4:53 PM 96.1 °F 23.0 °F 7% 29.77 in 10.0 mi West 18.4 mph 21.9 mph N/A   Clear
7:18 PM 87.8 °F 28.4 °F 12% 30.04 in 9.0 mi NNW 17.3 mph 54.1 mph N/A   Squalls
9:16 PM 77.0 °F 35.6 °F 22% 30.02 in 10.0 mi SSE 13.8 mph - N/A   Clear
9:53 PM 75.0 °F 37.0 °F 25% 29.82 in 10.0 mi SE 11.5 mph - N/A   Clear
10:53 PM 77.0 °F 33.1 °F 20% 29.85 in 10.0 mi SSE 11.5 mph - N/A   Clear
11:06 PM 84.2 °F 30.2 °F 14% 30.07 in 9.0 mi Variable 6.9 mph 49.5 mph N/A   Squalls
11:53 PM 79.0 °F 30.9 °F 17% 29.81 in 10.0 mi SSE 8.1 mph - N/A   Partly Cloudy